Theta_e
315 315 315 315 316 317 317 317 317 317 317 316 315 316 315 315 313 312 313 313 312 311 311 312 311 310 309 306 302 300 298 296 296 296 295 295 294 294 293 292 292 291 290 290
316 316 316 316 316 316 316 316 316 316 315 315 314 315 315 314 314 314 313 313 313 311 310 309 309 309 307 304 302 299 298 296 296 295 295 294 294 293 293 292 292 291 290 289
314 316 316 316 316 316 315 315 315 315 315 313 313 314 313 312 313 313 313 313 312 309 309 308 307 307 306 303 301 299 297 296 295 295 295 294 294 294 293 292 291 290 289 289
314 314 315 314 314 314 314 314 315 315 315 316 314 315 314 314 313 311 311 310 309 308 309 308 306 305 304 302 301 299 297 296 295 295 295 294 293 292 292 292 291 290 289 289
314 314 314 315 314 313 315 313 313 314 316 316 316 315 314 313 312 312 311 311 310 309 308 307 305 305 304 302 300 298 297 296 296 295 295 294 292 292 292 291 290 290 289 288
312 311 313 314 311 312 310 313 312 312 312 314 313 314 313 313 313 312 310 309 309 310 307 306 306 305 303 302 300 298 297 296 296 295 294 294 292 292 292 291 290 289 288 287
312 312 312 310 313 310 311 315 316 318 315 317 313 314 315 314 310 309 309 309 308 308 306 304 303 302 302 301 300 298 297 296 296 295 294 293 292 292 292 291 290 289 288 287
316 317 313 309 312 314 311 314 317 317 315 315 313 315 314 313 311 308 308 309 308 307 306 304 302 301 301 301 299 298 297 296 295 295 294 293 292 292 291 291 291 289 288 287
313 313 310 310 311 312 313 313 314 315 309 314 315 313 312 312 310 309 309 307 306 306 305 304 302 301 301 300 299 297 296 295 295 294 293 293 292 291 291 290 290 289 288 287
314 315 311 306 306 307 309 310 314 314 311 312 312 310 311 313 312 309 309 307 306 306 304 303 302 301 301 300 298 297 296 295 295 294 293 292 291 291 290 290 289 288 287 286
313 314 311 306 307 310 307 309 310 311 316 313 313 312 308 312 313 310 308 308 306 306 305 303 302 302 301 300 298 297 296 295 295 294 292 292 291 290 289 289 288 287 286 284
313 315 316 313 310 307 309 311 311 313 313 311 313 314 312 308 308 308 307 307 306 307 306 303 302 300 299 299 299 297 295 295 294 294 292 291 290 289 288 287 286 286 284 283
312 313 317 314 311 305 307 309 310 311 311 314 315 314 311 311 308 307 306 306 306 305 304 304 302 300 299 298 298 296 295 294 294 293 292 290 289 287 286 285 285 284 282 282
312 313 314 316 314 312 311 310 308 310 312 313 313 312 311 311 311 310 310 307 305 304 304 303 302 301 299 299 298 297 295 294 293 292 291 289 287 285 284 284 283 282 281 280
309 313 313 313 313 312 313 313 312 312 312 311 310 310 310 311 310 310 310 309 307 307 306 304 302 301 299 298 297 296 295 294 293 291 289 287 285 283 282 283 282 280 279 278
310 312 312 313 312 312 312 311 311 311 311 313 312 313 311 309 309 309 309 309 309 308 307 305 302 299 297 296 298 295 294 293 292 290 288 286 283 281 281 281 280 279 278 277
310 310 311 314 312 312 314 313 312 312 311 311 312 311 311 311 311 311 310 310 310 309 308 303 301 300 297 297 298 294 293 292 290 288 285 283 281 280 280 279 278 277 277 276
313 312 314 316 315 316 313 311 311 312 312 312 311 311 311 311 311 310 310 310 310 308 306 302 299 299 300 302 297 294 291 289 286 284 282 281 279 279 279 278 277 276 276 275
314 315 316 316 316 314 312 311 311 312 313 311 311 311 311 311 311 311 310 310 309 308 307 301 300 301 302 297 294 291 287 285 283 282 281 279 278 277 276 276 276 275 274 274
311 312 315 317 318 318 313 311 310 310 313 311 311 311 311 310 312 311 310 306 304 303 300 299 296 296 294 291 290 286 283 282 282 281 279 278 278 277 275 275 274 274 274 273
312 313 315 315 316 316 312 310 307 311 313 310 310 310 309 308 308 308 303 303 302 301 297 294 292 290 290 289 286 283 281 281 281 280 278 277 276 276 275 274 273 273 273 272
313 313 313 314 315 315 307 308 311 306 305 306 304 304 303 304 304 302 301 301 299 298 293 289 285 285 287 286 284 282 281 281 280 278 276 275 275 274 273 273 272 272 271 271
307 301 299 303 306 303 301 300 300 302 305 303 301 300 302 303 304 302 301 300 299 297 290 287 285 282 282 283 282 281 280 279 276 275 273 273 273 272 272 271 271 270 270 270
294 295 295 297 301 298 297 299 301 301 302 299 300 302 302 303 302 301 300 298 296 289 288 284 283 282 280 280 281 281 279 276 274 273 271 271 270 269 270 270 269 270 269 270
293 292 294 291 293 294 293 295 295 295 295 294 293 294 296 297 297 297 298 299 295 294 287 285 284 284 282 279 279 280 276 274 273 271 270 270 269 269 269 269 269 270 270 271
290 290 291 291 291 291 291 291 291 290 289 287 288 289 291 293 294 294 295 296 296 295 286 283 283 283 281 279 278 277 274 273 272 271 270 269 269 269 269 269 270 271 270 271
Wind_Speed
7 5 12 20 15 17 13 15 15 21 10 9 14 17 18 15 10 11 14 18 15 14 13 28 35 36 36 37 37 37 37 34 34 33 32 28 29 26 24 21 19 19 16 13
5 16 19 10 11 7 9 12 19 15 10 9 11 14 11 10 16 18 18 18 20 8 9 10 28 35 37 38 39 38 40 39 38 38 36 28 30 26 26 23 24 21 19 16
20 8 18 14 12 13 19 13 19 17 13 4 5 8 12 10 19 19 20 21 17 10 11 10 17 28 32 35 40 43 43 42 39 37 34 23 25 18 24 26 27 24 22 17
17 19 19 17 15 10 22 9 11 11 7 10 8 7 9 6 9 10 16 15 11 10 9 9 12 21 30 34 38 41 40 40 40 37 38 38 32 25 27 34 30 25 23 20
7 4 7 13 21 11 17 4 4 5 7 7 8 8 9 11 10 13 11 14 14 10 11 11 13 24 29 34 38 40 38 40 39 43 42 41 36 34 26 29 28 27 24 21
16 4 2 4 3 1 4 0 4 3 2 9 11 11 5 9 11 6 9 13 16 8 9 9 14 25 26 33 35 36 38 38 42 44 41 42 39 33 27 32 33 29 25 21
6 19 4 4 2 2 4 3 3 3 3 12 14 14 20 6 8 10 12 13 7 9 9 10 11 11 21 29 33 35 38 36 41 44 42 42 39 37 36 38 35 30 25 23
4 6 16 9 16 8 9 9 5 7 6 20 5 8 6 9 11 12 12 17 10 10 9 10 11 11 20 26 35 37 38 37 40 44 42 40 41 40 40 40 37 32 29 25
7 9 3 5 2 9 5 6 4 3 1 5 11 12 8 4 11 11 15 8 9 9 9 10 9 14 21 27 34 37 35 36 38 41 39 40 40 40 41 39 34 31 28 25
4 9 6 2 4 3 3 3 2 3 3 8 20 11 15 6 16 9 6 8 7 7 9 9 9 14 22 26 30 33 34 37 38 38 39 38 39 42 39 37 36 34 30 28
5 6 3 6 8 9 3 4 5 2 5 10 15 15 6 5 3 9 9 8 9 10 10 10 10 17 27 28 29 32 36 37 38 40 40 38 39 40 40 39 38 36 31 26
3 3 6 18 5 3 8 14 13 10 13 4 8 27 6 8 10 10 9 9 8 8 10 10 11 12 18 25 30 37 35 35 41 39 40 41 40 39 39 39 37 34 30 26
5 3 4 9 14 4 5 5 7 8 8 17 18 26 8 17 11 8 9 8 8 10 9 9 8 10 13 22 26 29 32 37 37 39 39 38 39 40 39 39 36 32 28 26
6 6 15 15 16 13 11 16 9 14 12 24 23 32 33 27 25 24 22 9 11 10 10 9 8 9 11 23 27 29 31 36 38 39 39 36 38 38 36 36 34 31 30 26
5 9 20 26 27 31 32 31 30 20 19 21 28 26 29 32 20 25 15 14 8 10 11 9 10 10 11 15 24 28 29 33 38 35 35 33 31 34 35 34 32 30 27 24
11 8 16 22 27 32 34 33 33 37 35 35 38 35 35 32 29 29 27 23 20 16 12 10 11 10 10 11 22 27 29 34 38 33 32 33 34 34 34 34 32 29 25 22
11 9 8 18 24 24 21 34 37 34 33 33 30 41 46 34 33 36 28 23 22 15 16 10 10 10 9 16 28 26 30 34 36 32 33 35 36 36 35 34 31 29 26 22
16 17 13 18 15 23 24 25 33 38 37 35 31 33 34 35 38 28 18 19 22 16 12 11 8 8 16 24 27 24 30 34 32 32 35 39 41 40 38 35 32 29 25 22
23 21 13 11 17 22 7 18 27 28 32 32 29 31 34 34 26 24 24 24 19 19 18 10 10 11 10 17 23 29 28 29 29 31 34 36 36 32 34 36 35 30 25 21
26 22 19 18 16 19 16 24 27 20 15 18 22 27 25 20 13 17 28 10 11 13 8 7 6 7 14 20 29 28 25 26 26 28 30 33 35 35 33 31 30 27 23 18
9 15 23 22 18 13 7 14 5 8 14 19 23 22 15 10 8 13 8 7 5 7 7 5 8 7 17 23 25 19 21 25 29 31 33 33 34 34 36 34 30 28 23 18
22 12 12 13 18 20 13 6 10 13 21 15 14 17 18 13 12 9 10 8 7 8 1 4 3 4 13 21 23 15 17 20 29 32 31 32 35 34 33 32 28 25 22 18
2 5 4 5 6 15 6 10 20 19 10 8 13 14 14 15 11 8 8 9 8 9 5 8 6 6 13 19 23 16 18 27 28 29 30 32 33 32 33 32 28 22 19 14
12 23 14 12 7 23 28 21 13 14 12 14 14 12 14 17 18 20 15 11 7 4 5 5 6 7 8 21 24 20 25 30 30 25 25 29 29 30 29 26 25 22 18 14
13 20 17 24 19 24 20 16 18 19 13 14 14 15 15 13 17 15 16 15 8 8 6 12 10 10 13 22 24 26 33 35 28 27 26 26 27 28 27 22 26 23 21 20
12 16 14 18 22 20 24 22 22 18 16 13 16 18 16 14 14 13 14 14 12 8 4 6 11 14 17 23 25 30 34 36 33 29 28 27 26 26 25 25 21 14 17 15
Wind_Direction
194 185 215 222 214 232 253 264 264 267 254 183 236 240 251 261 255 245 253 258 252 243 231 207 195 194 192 190 185 187 186 189 192 190 187 192 199 198 202 203 205 214 214 216
229 226 230 244 253 266 270 269 266 276 294 208 248 251 252 260 262 257 255 262 262 238 242 184 175 184 185 182 184 187 190 191 195 195 195 195 200 206 207 205 209 214 214 218
223 197 215 235 252 252 248 249 259 263 283 222 310 269 252 245 249 258 261 255 260 228 230 175 172 178 176 177 183 188 192 194 196 197 198 194 197 194 198 206 211 208 213 218
251 241 246 255 250 224 265 235 257 266 284 259 181 283 231 220 227 226 248 256 248 222 214 167 168 170 174 182 187 192 192 193 197 196 197 195 186 185 199 202 208 208 213 214
220 202 199 234 241 228 263 207 232 270 265 301 258 281 221 192 232 240 242 254 258 219 194 164 174 175 179 182 189 193 193 198 197 199 201 198 199 206 214 211 209 208 209 214
257 124 245 228 72 358 118 86 214 231 213 255 209 216 226 205 213 221 223 240 254 177 158 161 163 169 179 187 192 192 196 202 202 202 202 204 203 202 197 188 187 201 210 214
230 234 179 137 189 154 195 141 289 293 195 252 187 222 241 196 177 188 211 234 193 154 159 166 163 172 177 184 189 194 198 202 203 207 206 207 209 204 200 194 201 202 204 209
239 272 183 177 208 166 184 183 177 240 251 275 201 250 236 205 217 206 204 236 160 170 174 177 176 174 183 187 190 195 199 202 202 206 208 208 211 207 205 205 210 211 209 213
208 245 44 152 124 161 182 203 195 262 115 298 253 267 311 273 238 220 219 166 175 178 176 182 175 181 189 193 197 200 200 204 204 205 206 208 210 207 204 206 209 208 208 208
259 262 186 88 46 283 217 165 131 228 253 243 276 279 270 208 233 223 192 205 217 208 192 188 189 195 197 202 204 202 203 205 206 207 208 207 208 210 206 205 205 207 209 211
235 230 210 124 205 191 169 237 223 268 193 241 269 273 278 139 153 178 208 205 227 199 199 197 198 200 199 202 202 201 204 205 208 209 206 206 208 207 206 205 208 210 210 211
212 235 238 237 233 236 235 221 191 226 237 230 237 262 222 153 164 161 193 198 213 201 196 197 205 192 190 199 199 203 205 204 208 206 204 204 205 203 201 204 206 208 206 210
4 319 330 284 278 217 220 227 238 256 262 250 247 262 174 252 250 227 193 208 220 225 219 214 209 192 196 199 204 206 204 207 207 205 203 201 200 198 198 201 202 204 205 210
107 238 244 246 249 285 265 270 248 244 243 252 250 260 272 266 272 275 274 249 225 224 216 224 223 211 204 204 206 206 207 206 201 198 197 193 195 194 194 199 203 203 205 206
176 233 236 243 248 259 258 262 275 268 266 264 275 268 272 272 268 265 267 270 249 264 261 235 228 229 208 207 206 205 205 199 196 189 189 190 187 189 191 198 201 202 204 206
179 241 227 233 236 243 252 257 260 256 255 247 250 266 258 265 276 276 272 273 277 275 262 248 233 223 221 208 207 203 198 194 190 184 183 182 182 184 189 194 195 197 199 205
178 203 202 244 231 237 244 238 243 252 247 246 246 241 253 258 256 262 271 276 275 263 263 227 227 229 220 221 214 200 195 188 181 176 172 174 176 178 186 191 192 195 199 203
220 218 236 249 234 230 230 241 233 239 243 248 248 253 253 253 256 258 264 269 272 264 268 255 228 230 227 233 215 194 181 176 171 169 169 172 175 179 185 187 189 191 196 198
226 235 243 240 236 253 273 230 223 221 238 242 254 250 250 253 264 281 260 254 262 270 265 234 217 225 229 199 183 170 164 166 170 176 177 175 175 174 174 174 182 191 190 190
233 233 237 241 248 249 244 237 251 251 259 254 241 247 246 247 248 252 265 271 223 241 237 237 163 168 166 175 174 160 166 171 183 179 176 174 177 176 175 176 175 183 187 186
219 227 234 241 251 255 225 266 10 245 268 252 263 263 277 265 257 266 305 276 242 233 206 160 166 185 173 174 174 167 173 190 182 175 172 173 177 175 179 176 176 179 176 176
248 233 229 234 238 248 356 322 263 332 325 356 10 352 341 336 335 343 335 318 275 264 204 173 138 155 175 180 179 178 193 184 173 168 165 169 172 172 173 172 170 175 173 174
303 6 307 312 332 318 284 306 298 298 312 345 324 318 318 319 325 313 303 309 298 278 220 188 161 172 198 196 195 188 189 174 166 160 162 165 167 166 168 167 165 162 171 166
304 297 286 306 325 307 296 305 329 334 338 329 316 303 316 315 308 306 304 288 265 248 230 197 176 197 210 208 207 204 177 171 162 160 161 157 156 156 163 162 165 157 164 163
285 312 302 297 290 304 295 319 312 307 308 313 308 302 294 285 282 290 297 295 270 242 213 193 208 216 218 194 201 196 180 171 163 160 161 161 157 158 153 158 162 164 174 179
272 275 285 286 294 295 302 324 320 328 335 341 320 308 309 310 297 303 291 291 286 276 207 196 207 213 210 194 191 187 182 177 166 162 166 169 161 160 152 146 146 162 163 163